User: anonymous   Login
Location: Unspecified
(0.0000°N, 0.0000°E)
Time: 22:49:33
(UTC+00:00)
Language:

Kosmos-1553 - Orbit

View from above orbital plane
View from above orbital plane
View from above satellite
View from above satellite

Ground track
Ground track

The orbit data is extracted from the following two-line orbital elements,

1 14973U 84046A   17113.86477414 +.00000036 +00000-0 +22404-4 0  9995
2 14973 082.9389 211.3664 0031128 237.6568 262.0656 13.75304363652409
Epoch (UTC): 23 April 2017 20:45:16
Eccentricity: 0.0031128
inclination: 82.9389°
perigee height: 957 km
apogee height: 1003 km
right ascension of ascending node: 211.3664°
argument of perigee: 237.6568°
revolutions per day: 13.75304363
mean anomaly at epoch: 262.0656°
orbit number at epoch: 65240

The dashed part of the orbit path shows where the satellite is in the earth's shadow,  

DLR